{"data":{"norad_id":59904,"epoch":"2026-09-20T21:42:34.725312Z","epoch_age_seconds":139624,"freshness":"FRESH","line1":"1 59904U 24100V   26263.90456858 -.00000646  00000+0 -13932-4 0  9997","line2":"2 59904  43.0038 102.8174 0001447 269.7063  90.3622 15.27583826131003","mean_motion":15.27583826,"eccentricity":0.0001447,"inclination_deg":43.0038,"raan_deg":102.8174,"arg_perigee_deg":269.7063,"mean_anomaly_deg":90.3622,"bstar":-1.3932e-5,"rev_number":13100,"period_min":94.266512612317,"perigee_km":482.04482767281,"apogee_km":484.03045161353,"semimajor_km":6861.1746396432,"source":"CELESTRAK","updated_at":"2026-09-22T09:00:49.109531Z"}}